Flag for Germany Weather past 2 weeks in Ingolstadt, Bavaria, Germany

Now
41 °F

Quite cool.


Feels Like: 41 °F
Forecast: 32 / 60 °F
Wind: 2 mph from South

Location: Ingolstadt Airport

Current Time: Apr 19, 2015 at 11:36:54 PM

Latest Report: Apr 19, 2015 at 10:20 PM


Visibility: 3 mi

Pressure: 30.15 "Hg

Humidity: 76%

Dew point: 34 °F

Location of IngolstadtLocation

Historic Weather in Ingolstadt — Graph

°F

Ingolstadt temperature yesterday

Maximum temperature yesterday: 52 °F (at 5:20 PM)
Minimum temperature yesterday: 36 °F (at 6:20 AM)
Average temperature yesterday: 45 °F

Past Weeks' High & Low Weather Summary

 TemperatureHumidityPressure
High73 °F (Apr 15, 4:20 PM)100% (Apr 7, 1:20 AM)30.60 "Hg (Apr 7, 1:20 AM)
Low25 °F (Apr 7, 5:20 AM)22% (Apr 15, 6:00 PM)29.86 "Hg (Apr 17, 5:20 AM)
Average49 °F64%30.23 "Hg
* Reported Apr 4 9:20 PM — Apr 19 9:20 PM, Ingolstadt, Weather by CustomWeather, © 2015

Note: Actual official high and low records may vary slightly from our data, if they occured in-between our weather recording intervals... More about our weather records

Advertising

Ingolstadt weather history for previous 24 hours

 ConditionsComfort  
Time TempWeatherWind HumidityBarometerVisibility
9:20 PM
Sun, Apr 19
46 °FCool.No wind71%30.12 "Hg3 mi
8:20 PM54 °FCool.3 mph38%30.12 "Hg3 mi
7:20 PM55 °FRefreshingly cool.10 mph33%30.09 "Hg4 mi
6:20 PM57 °FPassing clouds.9 mph31%30.09 "HgN/A
5:53 PM57 °FPassing clouds.7 mph31%30.09 "HgN/A
5:20 PM57 °FRefreshingly cool.8 mph29%30.09 "Hg4 mi
4:20 PM57 °FRefreshingly cool.6 mph31%30.09 "Hg4 mi
3:20 PM55 °FRefreshingly cool.8 mph36%30.09 "Hg4 mi
2:20 PM55 °FRefreshingly cool.8 mph36%30.12 "Hg4 mi
1:20 PM52 °FCool.8 mph41%30.12 "Hg4 mi
12:20 PM52 °FCool.10 mph41%30.15 "Hg3 mi
11:20 AM50 °FCool.10 mph43%30.15 "Hg3 mi
10:20 AM48 °FCool.8 mph46%30.15 "Hg3 mi
9:20 AM43 °FQuite cool.8 mph61%30.15 "Hg3 mi
8:20 AM37 °FChilly.7 mph75%30.18 "Hg3 mi
7:20 AM34 °FChilly.7 mph81%30.15 "Hg3 mi
6:20 AM32 °FChilly.7 mph87%30.15 "Hg4 mi
5:20 AM32 °FChilly.6 mph87%30.15 "Hg3 mi
4:20 AM32 °FChilly.2 mph87%30.18 "Hg3 mi
3:20 AM32 °FChilly.1 mph87%30.21 "Hg3 mi
2:20 AM36 °FChilly.3 mph75%30.21 "Hg3 mi
1:20 AM37 °FChilly.2 mph75%30.21 "Hg3 mi
12:20 AM39 °FChilly.2 mph65%30.21 "Hg3 mi
11:20 PM
Sat, Apr 18
37 °FChilly.1 mph81%30.21 "Hg3 mi
Weather by CustomWeather, © 2015

See weather overviewHow to use our weather pages